Cloud_Cover
95 100 98 50 27 43 83 100 100 100 98 100 100 100 100 100 100 100 89 50 72 61 100 86 45 32 100 100 84 17 17 16 37 23 30 72 39 69 5 7 35 68 49
100 100 100 56 56 80 100 100 100 100 100 100 100 100 100 100 100 100 67 57 59 100 100 100 87 100 100 100 29 5 9 5 63 12 9 79 59 16 10 5 83 35 99
100 100 38 76 62 94 98 100 100 100 100 100 100 100 100 100 100 100 100 100 100 100 100 99 100 81 99 94 15 2 5 5 7 5 6 5 5 5 5 5 24 10 10
100 97 74 99 100 100 100 100 100 100 100 100 100 100 100 100 95 100 100 41 51 41 46 47 58 13 12 6 5 5 5 7 20 5 32 22 10 5 5 30 16 15 36
100 97 100 100 100 100 100 100 100 100 100 100 100 100 100 100 100 94 100 70 15 6 5 4 1 1 8 65 5 56 59 27 17 93 65 18 16 13 34 5 6 16 7
100 100 100 100 100 100 100 100 100 100 100 100 100 100 100 100 20 36 44 94 6 5 5 1 0 2 5 24 73 97 71 67 67 36 5 72 64 36 100 99 6 5 4
100 100 100 100 100 100 100 100 100 100 100 100 100 100 100 100 99 100 50 41 34 22 98 100 99 100 100 31 6 9 9 45 80 37 71 8 18 99 100 100 88 89 10
100 100 100 100 100 100 100 100 87 100 100 100 100 100 100 100 55 73 90 100 100 100 100 100 92 97 100 45 5 5 37 6 48 33 28 45 10 42 40 70 57 95 70
100 100 100 100 100 100 100 100 100 100 100 100 100 100 100 97 85 93 99 63 44 95 94 15 8 4 22 61 83 95 100 98 93 8 16 5 5 9 5 5 5 5 10
100 100 100 100 100 100 100 100 100 100 100 100 100 100 100 100 100 100 100 100 100 100 100 100 100 100 100 100 100 100 100 100 100 100 33 5 5 0 0 2 5 5 5
100 100 100 100 100 100 100 86 100 100 100 100 100 100 100 100 100 100 100 100 100 88 100 100 89 100 92 37 27 49 100 98 58 22 13 5 5 0 0 0 0 0 1
100 100 100 100 100 100 100 100 100 100 100 100 100 100 100 100 100 100 100 100 100 52 100 68 85 98 49 43 22 70 43 14 52 75 16 0 0 1 0 0 0 0 0
100 100 100 98 100 100 100 100 42 100 100 100 100 100 100 100 100 100 100 100 100 100 100 100 100 15 16 5 5 5 5 5 2 0 0 0 0 0 0 0 0 0 0
100 100 100 100 100 100 100 100 96 100 100 100 100 92 100 100 100 97 98 100 34 19 29 12 13 5 15 5 4 5 0 2 0 0 0 0 0 0 0 0 0 0 1
97 91 100 100 100 100 100 100 100 64 100 94 72 64 56 100 100 100 89 100 86 14 18 30 30 80 32 5 5 2 0 0 0 0 0 0 0 0 0 0 0 2 4
87 77 100 98 100 74 39 100 100 100 34 50 21 66 93 52 39 50 42 38 27 59 26 40 28 39 7 30 5 0 0 0 0 0 0 0 0 0 0 0 0 0 0
100 100 91 100 100 96 85 88 25 21 97 12 36 80 32 50 11 6 7 10 30 66 61 99 17 74 96 72 5 0 0 0 0 0 0 0 0 0 0 0 0 0 0
99 94 100 96 100 58 73 22 100 93 100 99 78 81 24 79 35 5 5 11 5 5 5 42 86 5 8 5 5 0 0 0 0 0 0 0 0 0 0 0 0 0 0
48 38 90 72 41 99 100 97 61 60 73 100 41 25 30 19 5 14 5 5 5 5 8 8 5 5 5 1 0 0 0 0 0 0 0 0 0 0 0 0 0 0 0
5 5 2 8 33 77 100 100 39 16 86 94 96 44 7 11 49 12 5 5 4 0 1 2 1 0 0 0 0 0 0 0 0 0 0 0 0 0 0 0 0 0 0
14 5 0 0 20 86 68 93 24 0 4 2 1 0 0 0 0 0 0 0 0 0 0 0 0 0 0 0 0 0 0 0 0 0 0 0 0 0 0 0 0 0 0
7 5 3 3 44 100 100 100 78 1 0 0 0 0 0 0 0 0 0 0 0 0 0 0 0 0 0 0 0 0 0 0 0 0 0 0 0 0 0 0 0 2 0
5 5 0 0 37 97 100 100 98 16 3 0 0 0 0 0 0 0 0 0 0 0 0 0 0 0 0 4 1 1 3 3 0 0 0 0 1 5 5 5 5 4 0
5 5 5 5 25 98 100 100 100 39 5 5 4 4 0 0 0 0 0 0 0 0 0 0 0 0 0 0 0 0 0 0 5 5 16 4 0 0 0 2 5 4 0
5 5 3 5 13 95 100 100 100 100 49 26 63 7 5 5 1 0 0 0 0 0 0 0 0 0 0 0 0 0 0 0 3 5 5 5 7 13 42 100 97 70 5
91 5 4 5 5 53 100 100 100 100 82 5 24 45 5 5 5 5 2 0 0 0 0 0 0 0 0 0 0 0 0 0 2 4 5 5 36 99 100 85 24 3 0